Beaufort, NC

9:08 AM EDT on September 21, 2017 (GMT -0400)
Smith

Weather History for KMRH - July, 2013

Change the Weather History Date:

Saturday, July 20, 2013

  Actual Average Record
Temperature  
Mean Temperature 80 °F -  
Max Temperature 84 °F 87 °F 98 °F (1986)
Min Temperature 75 °F 73 °F 63 °F (1987)
Cooling Degree Days 14    
Growing Degree Days 30 (Base 50)    
Moisture  
Dew Point 74 °F    
Average Humidity 81    
Maximum Humidity 94    
Minimum Humidity 72    
Precipitation  
Precipitation 0.38 in - - ()
Sea Level Pressure  
Sea Level Pressure 30.05 in    
Wind  
Wind Speed 19 mph (SW)    
Max Wind Speed 25 mph    
Max Gust Speed 32 mph    
Visibility 9 miles    
Events Rain    
Averages and records for this station are not official NWS values.
T = Trace of Precipitation, MM = Missing Value Source: NWS Daily Summary

Daily Weather History Graph

Daily Weather History Graph

Search for Another Location

Airport or City:

Trip Planner

Search our weather history database for the weather conditions in past years. The results will help you decide how hot, cold, wet, or windy it might be!

Date:

Astronomy

Jul. 20, 2013 Rise Set
Actual Time 6:08 AM EDT 8:17 PM EDT
Civil Twilight 5:39 AM EDT 8:45 PM EDT
Nautical Twilight 5:04 AM EDT 9:20 PM EDT
Astronomical Twilight 4:27 AM EDT 9:58 PM EDT
Moon 6:19 PM EDT (7/20) 3:45 AM EDT (7/20)
Length of Visible Light 15h 06m
Length of Day
14h 09m
Waxing Gibbous, 93% of the Moon is Illuminated
Jul 20
Waxing Gibbous
Jul 22
Full
Jul 29
Last Quarter
Aug 6
New
Aug 14
First Quarter

Hourly Weather History & Observations

Time (EDT) Temp. Heat Index Dew Point Humidity Pressure Visibility Wind Dir Wind Speed Gust Speed Precip Events Conditions
12:58 AM 80.1 °F 84.5 °F 73.9 °F 81% 30.08 in 10.0 mi SW 16.1 mph 26.5 mph N/A   Partly Cloudy
1:58 AM 80.1 °F 84.5 °F 73.9 °F 81% 30.07 in 10.0 mi SW 15.0 mph 27.6 mph N/A   Mostly Cloudy
2:58 AM 80.1 °F 84.5 °F 73.9 °F 81% 30.06 in 10.0 mi SW 19.6 mph - N/A   Scattered Clouds
3:09 AM 80.6 °F 85.4 °F 73.4 °F 79% 30.06 in 10.0 mi SW 21.9 mph 27.6 mph N/A   Mostly Cloudy
3:58 AM 81.0 °F 86.2 °F 73.9 °F 79% 30.06 in 10.0 mi SW 21.9 mph 28.8 mph N/A   Mostly Cloudy
4:58 AM 78.1 °F - 73.9 °F 87% 30.06 in 6.0 mi WSW 18.4 mph 31.1 mph 0.01 in Rain Light Rain
5:01 AM 77.0 °F - 73.4 °F 89% 30.06 in 1.8 mi WSW 25.3 mph 32.2 mph 0.14 in Rain Rain
5:05 AM 75.2 °F - 73.4 °F 94% 30.06 in 0.8 mi WSW 23.0 mph 32.2 mph 0.30 in Rain Heavy Rain
5:13 AM 75.2 °F - 73.4 °F 94% 30.06 in 1.5 mi WSW 19.6 mph 31.1 mph 0.37 in Rain Heavy Rain
5:17 AM 75.2 °F - 73.4 °F 94% 30.06 in 3.0 mi WSW 16.1 mph 31.1 mph 0.37 in Rain Rain
5:58 AM 78.1 °F - 73.9 °F 87% 30.07 in 10.0 mi SW 19.6 mph 23.0 mph 0.37 in   Scattered Clouds
6:58 AM 79.0 °F - 75.0 °F 88% 30.06 in 8.0 mi SW 16.1 mph 23.0 mph N/A   Partly Cloudy
7:58 AM 81.0 °F 86.2 °F 73.9 °F 79% 30.07 in 10.0 mi WSW 12.7 mph 21.9 mph N/A   Clear
8:58 AM 82.0 °F 87.9 °F 73.9 °F 76% 30.08 in 10.0 mi WSW 16.1 mph 21.9 mph N/A   Clear
9:58 AM 82.0 °F 87.9 °F 73.9 °F 76% 30.08 in 10.0 mi WSW 18.4 mph 24.2 mph N/A   Clear
10:58 AM 82.9 °F 90.2 °F 75.0 °F 77% 30.08 in 10.0 mi WSW 18.4 mph 25.3 mph N/A   Clear
11:58 AM 84.0 °F 91.2 °F 73.9 °F 72% 30.08 in 10.0 mi SW 20.7 mph 26.5 mph N/A   Clear
12:58 PM 84.9 °F 94.1 °F 75.9 °F 74% 30.06 in 10.0 mi SW 18.4 mph - N/A   Clear
1:58 PM 84.9 °F 94.1 °F 75.9 °F 74% 30.04 in 10.0 mi SSW 23.0 mph 28.8 mph N/A   Clear
2:58 PM 84.9 °F 95.3 °F 77.0 °F 77% 30.03 in 10.0 mi SSW 23.0 mph 28.8 mph N/A   Clear
3:58 PM 84.9 °F 95.3 °F 77.0 °F 77% 30.01 in 10.0 mi SSW 20.7 mph 27.6 mph N/A   Clear
4:58 PM 84.0 °F 91.2 °F 73.9 °F 72% 30.01 in 10.0 mi SSW 19.6 mph - N/A   Clear
5:58 PM 82.9 °F 90.2 °F 75.0 °F 77% 30.00 in 10.0 mi SSW 21.9 mph 29.9 mph N/A   Clear
6:58 PM 82.0 °F 87.4 °F 73.0 °F 74% 30.01 in 10.0 mi SW 18.4 mph 28.8 mph N/A   Clear
7:58 PM 80.1 °F 85.1 °F 75.0 °F 85% 30.02 in 10.0 mi SW 20.7 mph 29.9 mph N/A   Partly Cloudy
8:13 PM 80.6 °F 86.2 °F 75.2 °F 84% 30.02 in 10.0 mi SW 23.0 mph 32.2 mph N/A   Mostly Cloudy
8:45 PM 80.6 °F 86.2 °F 75.2 °F 84% 30.02 in 10.0 mi SW 20.7 mph 29.9 mph N/A   Scattered Clouds
8:58 PM 80.1 °F 85.1 °F 75.0 °F 85% 30.03 in 10.0 mi SW 19.6 mph 26.5 mph N/A   Partly Cloudy
9:58 PM 80.1 °F 84.5 °F 73.9 °F 81% 30.04 in 10.0 mi SW 19.6 mph 27.6 mph N/A   Clear
10:58 PM 79.0 °F - 73.9 °F 84% 30.04 in 10.0 mi SW 18.4 mph 26.5 mph N/A   Clear
11:58 PM 79.0 °F - 73.9 °F 84% 30.04 in 10.0 mi SW 17.3 mph - N/A   Clear